FW5493 Weather Reports


Display with metric or nautical units.
time (UTC)temp
F
wind
direction
speed
MPH
gust
MPH
rain 1hr
in
rain 24hr
in
rain mn
in
humidity
%
barometer
mb
20260508203030 75 300 13.0 20.0 0.00 0.00 0.00 23 1012.5
20260508201530 74 324 13.0 21.0 0.00 0.00 0.00 24 1012.5
20260508200038 74 305 11.0 26.0 0.00 0.00 0.00 25 1012.7
20260508194530 74 276 10.0 19.0 0.00 0.00 0.00 23 1012.7
20260508193030 74 299 16.0 22.0 0.00 0.00 0.00 21 1012.8
20260508191537 73 274 15.0 21.0 0.00 0.00 0.00 21 1013.0
20260508190030 73 294 15.0 22.0 0.00 0.00 0.00 24 1013.1
20260508184532 72 284 10.0 18.0 0.00 0.00 0.00 30 1013.2
20260508183031 72 254 13.0 21.0 0.00 0.00 0.00 33 1013.8
20260508181531 71 240 10.0 18.0 0.00 0.00 0.00 33 1013.9
20260508180032 70 271 10.0 16.0 0.00 0.00 0.00 35 1014.0
20260508174534 69 255 4.0 14.0 0.00 0.00 0.00 33 1014.2
20260508173030 69 267 7.0 16.0 0.00 0.00 0.00 32 1014.4
20260508171532 69 289 10.0 16.0 0.00 0.00 0.00 32 1014.4
20260508170038 69 287 9.0 14.0 0.00 0.00 0.00 34 1014.5
20260508164530 68 237 11.0 17.0 0.00 0.00 0.00 37 1014.5
20260508163033 68 227 8.0 15.0 0.00 0.00 0.00 44 1014.7
20260508161538 66 268 7.0 13.0 0.00 0.00 0.00 47 1014.8
20260508160029 64 248 8.0 14.0 0.00 0.00 0.00 51 1015.0
20260508154541 62 194 4.0 10.0 0.00 0.00 0.00 55 1015.2
20260508153030 60 224 4.0 8.0 0.00 0.00 0.00 59 1015.4
20260508151534 59 243 2.0 5.0 0.00 0.00 0.00 63 1015.5
20260508150030 57 246 2.0 6.0 0.00 0.00 0.00 66 1015.5
20260508144528 55 261 2.0 4.0 0.00 0.00 0.00 68 1015.6
20260508143040 54 248 0.0 2.0 0.00 0.00 0.00 70 1015.7
20260508141532 51 0 0.0 2.0 0.00 0.00 0.00 74 1015.7
20260508140036 50 248 0.0 3.0 0.00 0.00 0.00 75 1015.8
20260508134532 48 248 0.0 3.0 0.00 0.01 0.00 78 1015.8
20260508133028 47 248 2.0 4.0 0.00 0.01 0.00 78 1016.0
20260508131535 47 248 1.0 3.0 0.00 0.01 0.00 78 1016.0
20260508130041 47 248 2.0 4.0 0.00 0.01 0.00 79 1016.0
20260508124535 47 0 0.0 0.0 0.00 0.01 0.00 78 1015.8
20260508123035 47 0 0.0 0.0 0.00 0.01 0.00 79 1015.7
20260508121533 46 0 0.0 0.0 0.00 0.01 0.00 78 1015.6
20260508120029 47 0 0.0 10.0 0.00 0.01 0.00 77 1015.7
20260508114537 46 191 2.0 6.0 0.00 0.01 0.00 80 1015.7
20260508113033 46 0 1.0 4.0 0.00 0.01 0.00 78 1015.9
20260508111529 47 0 0.0 6.0 0.00 0.01 0.00 76 1015.8
20260508110036 47 215 0.0 6.0 0.00 0.01 0.00 77 1015.8
20260508104532 48 143 3.0 5.0 0.00 0.01 0.00 76 1015.8
20260508103038 49 57 3.0 4.0 0.00 0.01 0.00 73 1015.9
20260508101538 50 0 1.0 5.0 0.00 0.01 0.00 72 1015.9
20260508100029 51 0 0.0 2.0 0.00 0.01 0.00 70 1015.8
20260508094543 52 0 3.0 10.0 0.00 0.01 0.00 69 1016.0
20260508093031 52 195 9.0 16.0 0.00 0.01 0.00 68 1015.5
20260508091542 52 192 10.0 18.0 0.00 0.01 0.00 67 1015.7
20260508090042 52 110 2.0 4.0 0.00 0.01 0.00 67 1016.0
20260508084530 52 260 6.0 12.0 0.00 0.01 0.00 67 1015.9
20260508083029 51 252 6.0 10.0 0.00 0.01 0.00 68 1015.8
20260508081538 51 235 5.0 11.0 0.00 0.01 0.00 68 1016.0
20260508080032 51 257 4.0 8.0 0.00 0.01 0.00 68 1016.2
20260508074531 51 280 6.0 12.0 0.00 0.01 0.00 68 1016.3
20260508073038 51 287 6.0 9.0 0.00 0.01 0.00 66 1016.1
20260508071535 52 245 6.0 12.0 0.00 0.01 0.00 63 1015.9
20260508070048 51 280 4.0 13.0 0.00 0.01 0.00 64 1016.0
20260508064535 52 266 5.0 9.0 0.00 0.01 0.00 61 1016.0
20260508063031 53 259 6.0 14.0 0.00 0.01 0.00 60 1015.8
20260508061534 53 245 9.0 13.0 0.00 0.01 0.00 59 1015.8
20260508060035 54 252 6.0 12.0 0.00 0.01 0.00 54 1016.0
20260508054541 54 250 7.0 11.0 0.00 0.01 0.01 53 1016.2
20260508053029 53 263 6.0 10.0 0.00 0.01 0.01 54 1016.0
20260508051529 54 271 2.0 4.0 0.00 0.01 0.01 56 1015.9
20260508050032 53 293 9.0 13.0 0.00 0.01 0.01 58 1016.0
20260508044533 55 217 3.0 10.0 0.00 0.01 0.01 59 1015.5
20260508043031 53 175 3.0 6.0 0.00 0.01 0.01 62 1015.4
20260508041531 52 149 2.0 6.0 0.00 0.01 0.01 64 1015.4
20260508040035 52 0 1.0 7.0 0.00 0.01 0.01 65 1015.5
20260508034535 54 0 1.0 3.0 0.00 0.01 0.01 64 1015.6
20260508033029 54 355 1.0 7.0 0.00 0.01 0.01 64 1015.7
20260508031534 55 11 1.0 5.0 0.00 0.01 0.01 62 1015.5
20260508030033 56 119 3.0 6.0 0.00 0.01 0.01 61 1015.2
20260508024536 57 136 3.0 5.0 0.00 0.01 0.01 57 1014.9
20260508023037 61 138 6.0 8.0 0.00 0.01 0.01 51 1014.6
20260508021531 63 0 0.0 7.0 0.00 0.01 0.01 46 1014.6
20260508020029 63 80 4.0 8.0 0.00 0.01 0.01 47 1014.4
20260508014530 63 63 3.0 8.0 0.00 0.01 0.01 48 1014.3
20260508013031 63 34 5.0 9.0 0.00 0.01 0.01 45 1014.2
20260508011538 64 44 7.0 12.0 0.00 0.01 0.01 44 1014.0
20260508010031 65 341 8.0 15.0 0.00 0.01 0.01 43 1014.0
20260508004534 65 12 11.0 15.0 0.00 0.01 0.01 44 1014.0
20260508003034 65 31 10.0 17.0 0.00 0.01 0.01 44 1014.0
20260508001544 66 25 13.0 20.0 0.00 0.01 0.01 41 1014.1
20260508000031 67 350 13.0 23.0 0.00 0.01 0.01 40 1013.8
20260507234530 67 321 13.0 23.0 0.00 0.01 0.01 42 1014.0
20260507233035 67 267 8.0 17.0 0.00 0.01 0.01 42 1013.5
20260507231532 67 246 9.0 16.0 0.00 0.01 0.01 42 1013.6
20260507230035 67 263 9.0 13.0 0.00 0.01 0.01 40 1013.8
20260507224535 68 271 8.0 15.0 0.00 0.01 0.01 39 1013.7
20260507223031 69 277 5.0 14.0 0.00 0.01 0.01 38 1013.7
20260507221531 69 243 9.0 15.0 0.00 0.01 0.01 38 1013.9
20260507220031 67 284 6.0 16.0 0.00 0.01 0.01 41 1014.1
20260507214530 68 275 11.0 17.0 0.00 0.01 0.01 42 1014.6
20260507213036 68 281 12.0 19.0 0.00 0.01 0.01 42 1014.7
20260507211543 67 270 7.0 15.0 0.00 0.01 0.01 42 1014.9
20260507210035 67 284 11.0 15.0 0.00 0.01 0.01 40 1015.2
20260507204533 67 295 10.0 17.0 0.00 0.01 0.01 40 1015.2